Location: Chapel Hill
(35.9134°N, 79.0560°W)
Time: 04:28:59
(UTC-04:00)

ACS3 Solar Sail - Pass Details

Date: 24 June 2024
Orbit: 993 x 1022 km, 97.4° (Epoch: 23 July)

Event Time Altitude Azimuth Distance (km) Brightness Sun altitude
Exits shadow 21:55:54 18° 120° (ESE) 2,235 6.1 -13.7°
Maximum altitude 21:59:37 33° 69° (ENE) 1,622 5.7 -14.3°
Drops below altitude 10° 22:05:02 10° 9° (N) 2,764 7.7 -15.1°
Sets 22:07:45 0° 360° (N) 3,716 8.6 -15.5°
